User: anonymous   Login
Location: Unspecified
(0.0000°N, 0.0000°E)
Time: 23:05:20
(UTC+00:00)
Language:

STARLINK-5297 - Orbit

View from above orbital plane
View from above orbital plane
View from above satellite
View from above satellite

Ground track
Ground track

The orbit is defined by the following mean orbital elements,

1 54158U          26145.38437744 +.00000000 +00000-0 +46323-3 0 00005
2 54158  53.2127  29.9565 0001511  96.2067 263.9097 15.08803106    07
Epoch (UTC): 25 May 2026 09:13:30
Eccentricity: 0.0001511
inclination: 53.2127°
perigee height: 539 km
apogee height: 541 km
right ascension of ascending node: 29.9565°
argument of perigee: 96.2067°
revolutions per day: 15.08803106
mean anomaly at epoch: 263.9097°

The dashed part of the orbit path shows where the satellite is in the earth's shadow,  

DLR